Location: Oteiza
(42.6189°N, 1.9527°W)
Time: 00:55:55
(UTC+02:00)

ISS - Visible Passes

Search period start: 25 April 2018 00:00
Search period end: 05 May 2018 00:00
Orbit: 403 x 406 km, 51.6° (Epoch: 25 April)

Date Brightness Start Highest point End Pass type
(mag) Time Alt. Az. Time Alt. Az. Time Alt. Az.
02 May -1.9 06:00:27 10° S 06:03:05 23° SE 06:05:45 10° E visible
03 May -1.3 05:10:03 11° SSE 05:10:57 12° SE 05:12:25 10° ESE visible
04 May -3.4 05:52:26 18° SW 05:54:39 54° SE 05:57:51 10° ENE visible
